Regional Weather Roundup
Issued by NWS

Home | Current Version | Previous Version | Graphics & Text | Print | Product List | Glossary On
Versions: 1 2 3 4 5 6 7 8 9 10 11 12 13 14 15 16 17 18 19 20 21 22 23 24 25 26 27 28
000
ASUS45 KBOU 190806
RWRCO

WEATHER ROUNDUP FOR COLORADO
NATIONAL WEATHER SERVICE DENVER/BOULDER CO
200 AM MDT SAT APR 19 2014

NOTE: "FAIR" INDICATES FEW OR NO CLOUDS BELOW 12000 FEET WITH NO
SIGNIFICANT WEATHER AND/OR OBSTRUCTIONS TO VISIBILITY.

COZ001>005-013-030-031-190900-
...NORTHWEST COLORADO...

CITY           SKY/WX    TMP DP  RH WIND       PRES   REMARKS
CRAIG          CLOUDY    41  34  76 E3        30.04R
HAYDEN         PTCLDY    43  30  61 E3        30.07S
MEEKER         CLOUDY    55  29  36 S9        30.04F
MOUNT WERNER   CLOUDY    41  18  38 SW13      30.21S
STEAMBOAT SPGS CLOUDY    45  24  43 CALM      30.06R
WALDEN         MOCLDY    37  23  56 S5        30.09S
$$

COZ006>008-011-190900-
...WEST CENTRAL VALLEYS...

CITY           SKY/WX    TMP DP  RH WIND       PRES   REMARKS
GRAND JUNCTION CLOUDY    58  33  39 N10       30.01S
MONTROSE       CLOUDY    55  32  41 E5        30.06S
EAGLE          PTCLDY    52  34  50 E3        30.09S
RIFLE          MOCLDY    52  31  44 SE8       30.02S
DELTA          CLOUDY    64  31  29 NW5       30.03R
NUCLA            N/A     55  32  41 SW10      30.12S
$$

COZ017>023-064>068-190900-
...SOUTHWEST COLORADO...

CITY           SKY/WX    TMP DP  RH WIND       PRES   REMARKS
DURANGO        LGT RAIN  49  38  65 SW9       30.15R
CORTEZ         CLOUDY    49  43  80 W3        30.13S
PAGOSA SPRINGS CLOUDY    51  28  41 SW13G20   30.17R
TELLURIDE      CLOUDY    43  30  61 CALM      30.18F
WOLF CREEK PAS LGT SNOW  28  27  93 S21G35    30.29S WCI  15
$$

COZ009-010-012-014-032>034-037-058>063-190900-
...CENTRAL COLORADO...

CITY           SKY/WX    TMP DP  RH WIND       PRES   REMARKS
ASPEN          MOCLDY    42  29  59 SW7       30.11F
BUENA VISTA    PTCLDY    41  27  58 S3        30.10F
COPPER MTN     CLEAR     34  23  64 SW6G16    30.27F WCI  29
BERTHOUD PASS  FAIR      28  19  69 W14       30.28S WCI  17
COTTONWOOD PAS PTCLDY    45  23  42 NW10G17   30.17F
GUNNISON       MOCLDY    41  27  56 CALM      30.15F
KREMMLING      CLOUDY    50  27  40 N3        30.08F
LEADVILLE      PTCLDY    33  22  63 NE6       30.18F WCI  28
MONARCH PASS   CLOUDY    32  23  69 W16       30.37F WCI  21
SALIDA         MOCLDY    44  26  49 CALM      30.15F
SUNLIGHT       PTCLDY    36  30  80 CALM      30.24F
WILKERSON PASS MOCLDY    36  21  55 SW8       30.26S
$$

COZ069>075-190900-
...SAN LUIS VALLEY/SANGRE DE CRISTO MOUNTAINS...

CITY           SKY/WX    TMP DP  RH WIND       PRES   REMARKS
ALAMOSA        MOCLDY    43  32  65 S9        30.12F
LA VETA PASS   CLOUDY    39  28  65 SW12G23   30.18F
SAGUACHE       MOCLDY    46  25  42 N7        30.11F
$$

COZ035-036-038>040-190900-
...NORTHERN COLORADO FRONT RANGE...

CITY           SKY/WX    TMP DP  RH WIND       PRES   REMARKS
DENVER INTL AP MOCLDY    57  28  33 SW12      29.91S
DMNS CITY PARK   N/A     57  28  32 S9        29.92S
AURORA         MOCLDY    52  28  40 SW7       29.94S
FRONT RANGE AP NOT AVBL
ERIE MUNI ARPT PTCLDY    51  32  49 N3        29.90S
BOULDER MUN AP PTCLDY    61  28  29 SW9       29.91S
CENTENNIAL     PTCLDY    53  28  38 SW6       29.94S
BROOMFIELD     PTCLDY    61  27  27 NW3       29.93F
FORT COLLINS   MOCLDY    52  34  50 CALM      29.92R
LONGMONT       MOCLDY    53  32  44 CALM      29.92S
$$

COZ041-046-047-076>085-087-088-190900-
...PIKES PEAK/PALMER DIVIDE AND SOUTHERN FOOTHILLS...

CITY           SKY/WX    TMP DP  RH WIND       PRES   REMARKS
COLO. SPRINGS  CLOUDY    49  31  49 NE9       29.98F
A. F. ACADEMY  MOCLDY    50  28  42 VRB6      29.99F
ELLICOTT       NOT AVBL
FALCON         CLOUDY    55  24  30 NW7       30.01S
FORT CARSON    CLOUDY    50  31  47 W3        29.95F
LIMON          CLOUDY    41  36  82 W3        29.91F
MONUMENT HILL  MOCLDY    46  27  46 SW9       30.00F
TRINIDAD       CLOUDY    57  35  43 W14       29.99F
$$

COZ042>045-048>051-090-091-190900-
...NORTHEAST COLORADO...

CITY           SKY/WX    TMP DP  RH WIND       PRES   REMARKS
GREELEY ARPT   PTCLDY    45  30  57 NE5       29.90R
AKRON          MOCLDY    57  38  48 SW15      29.85F
BURLINGTON     PTCLDY    51  41  68 S16       29.88F
WRAY           CLOUDY    55  43  64 S6        29.84F
STERLING       MOCLDY    54  43  66 W6        29.84R
HOLYOKE        CLOUDY    54  45  71 SE9       29.84F
FORT MORGAN    MOCLDY    49  35  57 W6        29.87S
$$

COZ086-089-092>099-190900-
...SOUTHEAST COLORADO...

CITY           SKY/WX    TMP DP  RH WIND       PRES   REMARKS
PUEBLO         CLOUDY    56  37  49 SW3       29.90S
LA JUNTA       MOCLDY    61  37  41 SW15      29.88S
LAMAR          MOCLDY    61  38  42 W5        29.85S
SPRINGFIELD      N/A     55  42  61 S21       29.95F
$$



USA.gov is the U.S. government's official web portal to all federal, state and local government web resources and services.